Wind_Speed
30 31 22 20 25 21 12 15 16 15 14 13 9 6 9 5 6 3 4 6 6 13 14 10 7 12 15 17 15 15 17 17 16 15 14 12 12 12 11 12 13 11 11 12 13 14 16 18 18
22 23 16 22 21 15 17 16 13 16 17 13 9 6 5 6 7 6 4 4 6 7 10 6 8 10 13 19 16 15 16 17 15 16 14 13 12 12 11 10 11 8 9 10 11 11 13 15 15
20 18 22 26 15 12 14 13 17 15 14 12 10 8 5 6 7 7 5 3 0 5 8 7 20 15 12 17 19 16 15 17 17 15 13 12 11 10 10 11 9 8 8 8 8 7 11 11 14
21 23 33 22 20 16 10 12 16 14 11 13 11 11 8 5 7 7 5 1 1 3 10 16 8 15 6 17 22 18 18 18 17 15 14 12 11 10 7 8 9 7 7 7 6 5 7 8 11
22 26 35 18 23 18 17 15 12 13 11 10 11 11 10 9 7 6 4 1 1 1 5 13 4 4 6 11 18 19 21 19 17 16 14 12 10 7 6 6 6 6 4 5 4 3 3 6 7
35 28 25 20 24 19 26 21 12 7 10 11 9 8 9 9 7 5 2 1 3 2 2 3 8 10 13 17 18 14 20 17 15 16 14 11 10 6 4 5 4 3 2 2 2 0 1 4 5
35 27 27 17 22 17 19 19 19 14 10 12 10 10 8 9 7 6 3 4 2 6 2 6 8 9 7 14 15 8 7 20 18 14 14 12 9 8 9 5 3 3 1 1 2 3 4 3 4
40 32 29 18 18 19 17 21 20 21 14 13 14 13 11 9 7 8 6 3 3 3 5 5 3 5 6 6 9 5 6 12 21 15 14 11 11 9 8 5 4 4 5 5 3 3 5 5 6
28 18 6 9 11 10 10 16 19 21 20 19 17 15 13 11 10 9 9 10 8 6 4 3 7 7 5 3 12 2 6 11 7 19 16 15 13 13 11 8 7 7 7 7 6 6 8 7 7
17 7 7 11 11 19 16 12 14 18 15 16 18 17 15 13 13 13 13 13 11 9 6 4 1 3 2 6 6 7 8 4 7 17 17 16 17 12 11 10 10 10 6 7 9 10 11 12 11
7 3 7 3 8 10 14 15 16 14 15 14 16 17 16 15 14 14 16 16 16 14 10 9 8 7 8 9 9 9 12 9 7 4 9 12 14 14 13 14 13 14 14 10 10 12 13 15 15
6 6 8 5 2 9 12 15 20 20 16 13 15 17 18 18 17 15 15 15 16 16 14 13 11 9 7 7 9 9 12 13 10 6 3 4 8 10 9 13 15 19 20 14 13 15 15 15 17
4 9 5 4 5 5 12 18 20 18 15 15 14 18 17 18 18 18 17 13 15 19 21 15 13 11 14 13 10 9 11 7 6 6 5 3 3 6 12 12 17 16 14 17 17 17 19 20 18
12 10 11 7 1 6 13 13 17 18 15 13 14 13 15 17 18 18 19 16 17 19 20 21 20 16 17 18 15 13 10 8 8 7 6 5 5 5 4 4 2 5 8 14 18 21 24 23 23
13 16 6 11 3 11 9 20 21 22 17 13 12 14 15 14 15 17 18 16 18 20 20 20 21 20 18 17 16 14 11 11 11 10 10 8 7 6 5 4 3 3 5 6 9 11 14 16 25
17 15 5 11 16 14 14 14 27 24 16 12 11 12 13 14 14 16 18 21 20 20 20 18 20 18 18 18 16 14 13 12 10 7 7 8 6 7 7 7 6 4 4 5 7 8 6 4 9
19 10 12 8 21 15 11 20 26 23 13 11 10 12 13 14 15 16 18 18 18 18 20 20 20 17 16 15 14 13 12 10 9 9 7 7 4 3 3 3 4 5 7 7 9 10 8 5 2
12 6 10 12 18 15 18 17 20 20 15 14 16 13 11 12 13 15 16 16 15 16 15 15 15 13 13 12 11 12 12 10 8 8 6 7 7 9 5 4 4 8 9 8 15 11 16 10 4
10 8 8 10 10 10 18 19 23 12 14 22 12 12 13 11 11 12 13 14 14 14 14 13 12 12 11 11 11 12 13 11 11 13 11 8 6 20 13 8 6 12 12 15 17 25 27 15 16
18 9 17 15 19 10 13 15 23 20 24 23 21 10 9 11 13 12 11 10 10 11 11 11 11 11 10 9 10 10 11 9 11 12 11 17 16 22 18 15 10 17 19 18 18 23 27 25 20
22 18 11 17 15 9 10 18 24 28 28 25 19 9 7 7 11 12 11 9 9 8 6 6 7 8 9 9 9 10 9 8 9 12 15 13 16 15 14 16 12 15 19 22 22 22 20 22 25
28 18 9 17 19 11 3 19 23 26 30 29 18 12 5 7 11 10 10 12 10 8 8 7 8 9 9 10 10 9 9 8 10 13 18 16 15 15 14 17 14 17 20 22 24 25 26 24 24
30 12 13 16 11 11 13 17 16 25 27 28 28 18 10 6 7 14 12 13 14 13 9 7 8 9 10 10 10 10 10 9 9 11 11 16 22 21 20 20 21 22 24 25 25 27 28 28 27
18 13 21 24 26 19 15 17 15 22 19 26 26 26 30 15 9 6 19 17 16 16 17 15 13 10 10 10 10 11 11 11 13 18 20 17 16 18 22 24 24 25 27 29 31 34 36 37 37
22 18 14 5 6 6 1 8 20 20 22 23 27 35 36 38 27 8 8 19 18 19 21 21 21 20 18 16 13 15 17 17 16 18 22 23 22 24 24 26 28 31 35 36 37 38 40 41 40
19 17 16 10 6 17 6 16 26 25 27 28 33 35 38 38 36 34 16 18 22 23 20 22 21 22 22 22 22 20 20 20 20 18 21 23 25 24 27 31 31 29 33 36 39 38 40 43 44
17 17 18 19 12 8 14 18 21 24 26 28 32 34 36 38 35 34 34 19 20 27 27 22 22 24 26 26 25 25 26 23 21 17 16 19 20 26 31 34 37 39 38 40 43 45 45 46 47
22 11 27 23 18 9 14 19 19 23 26 32 16 18 21 29 37 36 36 36 32 39 32 31 26 39 30 31 30 23 31 31 27 21 16 12 26 37 35 38 43 46 49 48 51 51 51 51 53
27 27 29 23 17 8 12 21 24 29 33 31 26 23 26 25 30 36 36 40 29 30 29 36 48 34 34 32 35 28 24 38 33 28 24 12 29 40 41 44 46 48 51 49 53 53 53 54 52
20 28 26 28 28 21 19 23 27 28 32 35 30 26 29 29 26 27 31 32 36 37 42 45 26 41 42 41 49 21 33 18 10 33 39 50 39 47 53 50 50 51 56 55 58 56 58 58 56
Wind_Direction
78 70 67 69 49 42 60 51 34 39 67 92 87 59 77 87 104 119 78 136 107 123 127 130 138 144 168 168 162 154 155 160 163 157 150 143 134 129 132 124 111 109 109 103 96 88 85 82 75
74 69 68 59 53 349 51 44 38 42 56 64 84 81 85 92 106 132 89 107 132 151 180 156 176 136 174 178 167 166 164 168 170 165 160 154 145 133 133 125 117 115 113 106 95 89 82 80 73
94 85 56 45 22 33 33 49 45 40 55 60 74 80 72 95 107 117 123 125 151 158 207 162 168 130 157 182 178 172 175 179 180 175 166 162 148 139 136 132 126 123 120 115 104 94 82 77 78
100 69 72 40 41 39 37 35 59 44 42 53 71 81 87 86 102 107 113 116 196 275 170 159 157 181 191 190 185 194 186 187 186 183 173 172 157 149 139 131 126 125 127 124 116 97 79 72 72
108 81 89 37 12 23 66 42 39 35 54 69 71 77 85 86 97 106 110 315 349 215 129 175 164 192 241 238 220 205 181 189 192 189 181 176 162 154 153 141 120 118 122 119 110 104 68 70 58
85 86 73 32 24 19 25 32 55 66 44 54 65 81 85 80 88 121 104 139 324 260 209 110 202 234 257 258 231 202 184 187 195 195 184 180 168 158 203 175 147 138 122 72 84 300 56 52 23
50 73 83 28 1 20 39 38 31 62 58 54 60 69 72 76 64 72 63 36 28 39 95 340 245 266 240 208 224 278 249 196 191 192 188 180 177 179 218 195 199 209 213 294 31 341 322 0 346
56 33 27 5 7 6 22 39 46 51 50 53 54 61 64 69 61 47 39 53 112 98 176 16 45 43 352 46 302 191 52 221 182 197 194 190 199 225 223 224 226 242 250 256 272 300 318 327 321
44 37 302 342 336 19 59 36 36 51 41 46 45 46 50 55 51 40 34 27 30 35 32 25 60 53 42 352 17 142 319 309 201 198 207 207 207 209 233 224 239 253 253 271 273 276 285 289 298
7 308 341 290 328 352 15 29 7 58 48 48 45 45 43 49 58 61 54 50 44 48 61 40 236 91 111 98 79 108 155 185 250 208 209 216 229 224 222 221 225 250 249 274 287 291 289 289 285
157 83 327 137 6 345 2 32 47 43 59 48 57 54 50 50 57 63 62 57 56 61 72 94 90 70 73 98 81 111 120 112 145 121 227 227 233 248 240 246 238 249 242 278 278 286 291 292 288
7 16 14 118 268 315 6 33 35 34 50 52 55 57 52 53 49 53 63 61 58 57 65 75 77 80 85 93 91 94 107 129 136 137 102 186 232 251 269 254 255 260 248 265 288 284 284 278 284
291 90 329 170 317 304 42 30 14 10 13 54 51 56 56 56 51 46 52 56 60 59 67 87 80 78 99 89 63 81 89 98 109 119 124 118 201 259 261 267 256 289 263 252 285 290 289 287 280
173 135 68 66 131 335 54 49 35 22 14 24 53 58 61 56 53 52 46 40 52 60 68 78 87 80 84 85 82 84 93 106 109 119 103 98 87 74 54 40 266 294 272 269 275 271 266 270 273
119 100 21 35 43 11 14 21 35 18 12 20 32 45 60 63 55 54 55 48 48 54 60 62 69 70 75 80 84 85 92 99 97 102 99 93 90 87 74 64 54 28 22 7 333 283 273 264 258
89 119 202 324 351 1 31 49 21 10 17 15 26 46 51 63 67 61 56 55 48 47 56 57 61 62 66 68 71 75 76 74 79 100 115 111 107 91 77 73 68 47 17 7 354 5 9 350 289
87 104 187 278 335 337 343 41 26 10 20 28 39 43 44 45 54 63 63 59 51 49 49 53 59 56 55 54 54 55 58 52 41 24 20 25 41 70 65 52 7 357 335 342 325 304 287 282 334
82 87 258 280 326 311 303 344 17 31 24 55 55 51 50 50 49 47 51 58 57 56 58 60 63 64 63 60 55 47 39 29 16 1 343 318 316 323 305 322 299 296 296 325 311 288 296 267 327
97 124 264 265 310 254 295 322 341 29 14 12 10 46 49 53 52 53 53 46 44 49 45 49 47 44 43 39 39 36 36 17 7 359 310 257 271 331 288 267 297 339 334 304 317 323 334 350 352
136 146 197 253 288 241 277 297 310 340 2 8 7 350 16 34 36 39 47 48 45 44 43 35 29 24 24 23 23 24 29 4 353 317 329 350 349 28 336 3 348 318 328 323 322 325 333 337 337
150 125 229 270 285 232 277 282 291 314 333 345 13 12 352 348 356 6 22 27 24 26 32 28 13 5 2 5 11 16 23 6 347 340 331 344 345 343 348 329 336 323 316 317 323 326 325 322 319
159 151 157 249 272 246 263 267 281 304 315 328 345 16 88 12 352 346 354 358 4 6 2 357 351 341 334 334 340 349 354 352 334 331 328 333 337 334 334 328 325 313 315 313 317 316 316 313 309
172 183 213 218 232 242 238 259 289 289 289 309 311 341 15 85 28 334 338 338 337 339 345 329 326 323 316 312 318 330 333 325 308 308 312 326 336 342 338 336 329 321 313 311 313 310 309 308 307
173 210 216 223 230 244 198 228 259 284 295 294 306 324 332 348 19 360 328 332 334 327 326 320 313 306 300 298 305 310 309 313 319 319 316 323 320 325 328 326 319 316 317 315 313 313 311 311 312
180 216 209 166 85 62 48 234 263 278 276 289 295 310 320 319 326 347 305 314 323 321 317 314 313 309 305 298 302 308 312 314 319 319 314 315 321 323 320 317 321 318 314 310 308 308 307 306 304
205 209 141 113 350 321 204 254 242 259 277 293 300 307 306 305 311 316 322 278 303 310 313 309 306 303 302 307 308 305 306 308 312 310 307 312 318 322 315 315 310 304 299 298 299 299 298 296 296
207 220 172 201 220 202 211 226 241 266 280 294 289 298 301 294 299 305 312 315 299 304 299 300 293 298 303 297 295 300 300 299 291 291 304 317 308 313 313 305 313 306 305 304 301 301 299 296 294
208 199 195 204 196 206 272 270 257 267 279 283 293 305 308 286 285 294 307 309 313 308 289 295 305 290 283 293 281 284 285 289 277 288 269 324 328 309 301 307 309 309 308 310 306 303 302 301 300
219 196 194 205 185 202 280 230 237 253 268 278 290 295 309 312 296 295 291 281 270 288 276 291 297 279 268 288 265 275 317 307 283 346 285 274 322 310 308 309 307 310 307 309 304 303 303 302 300
254 234 211 208 185 210 243 252 248 258 269 272 287 296 302 302 303 286 293 308 289 298 305 317 292 276 261 244 248 313 294 323 289 320 315 291 314 309 309 308 309 310 308 311 305 307 307 306 304
Height
5910 5909 5912 5908 5904 5902 5905 5904 5902 5901 5903 5904 5904 5902 5905 5905 5907 5909 5907 5908 5909 5909 5909 5912 5912 5913 5915 5915 5915 5916 5917 5920 5923 5924 5926 5927 5927 5929 5931 5931 5931 5933 5933 5933 5933 5933 5932 5932 5933
5913 5912 5915 5908 5904 5908 5907 5905 5904 5901 5903 5905 5906 5906 5906 5907 5907 5907 5908 5909 5909 5910 5910 5912 5912 5914 5916 5916 5918 5919 5919 5921 5924 5925 5927 5929 5929 5930 5931 5933 5933 5935 5935 5936 5936 5936 5935 5935 5935
5915 5917 5913 5907 5911 5909 5908 5908 5908 5907 5906 5906 5907 5907 5906 5907 5908 5909 5909 5909 5910 5911 5911 5912 5913 5914 5917 5919 5920 5920 5921 5922 5925 5927 5929 5931 5932 5933 5933 5933 5935 5936 5937 5938 5938 5939 5938 5937 5936
5920 5917 5908 5914 5915 5912 5911 5909 5911 5910 5908 5907 5907 5908 5908 5907 5908 5909 5909 5909 5911 5910 5908 5912 5915 5916 5918 5919 5919 5919 5921 5923 5925 5928 5929 5932 5933 5934 5936 5936 5936 5938 5939 5939 5940 5941 5940 5940 5939
5923 5917 5908 5920 5914 5914 5915 5915 5913 5912 5911 5910 5910 5910 5910 5909 5908 5909 5911 5910 5912 5913 5912 5912 5916 5917 5916 5917 5917 5918 5921 5923 5926 5928 5931 5933 5934 5936 5937 5938 5938 5940 5940 5940 5941 5942 5942 5941 5941
5922 5922 5916 5920 5919 5917 5914 5914 5916 5916 5913 5912 5911 5911 5911 5911 5910 5911 5911 5912 5912 5913 5914 5915 5917 5918 5917 5916 5917 5917 5921 5924 5928 5930 5932 5934 5936 5937 5939 5939 5939 5941 5942 5942 5942 5943 5943 5943 5943
5923 5924 5920 5922 5922 5923 5920 5918 5916 5916 5915 5913 5913 5913 5913 5912 5912 5913 5913 5913 5913 5913 5915 5916 5915 5916 5917 5917 5921 5922 5920 5923 5929 5931 5933 5934 5936 5938 5940 5940 5941 5942 5943 5943 5943 5943 5944 5944 5944
5922 5926 5930 5930 5925 5925 5923 5922 5920 5919 5919 5916 5915 5913 5914 5914 5913 5914 5915 5915 5915 5915 5915 5916 5918 5919 5919 5921 5920 5923 5922 5924 5927 5932 5934 5933 5936 5939 5940 5941 5941 5942 5943 5944 5943 5943 5944 5945 5945
5928 5937 5939 5934 5930 5929 5929 5927 5925 5922 5921 5919 5918 5916 5916 5915 5915 5915 5915 5914 5914 5915 5916 5917 5917 5918 5919 5920 5920 5920 5924 5926 5928 5931 5933 5934 5936 5938 5939 5940 5941 5942 5943 5944 5943 5943 5943 5944 5944
5936 5944 5941 5935 5930 5927 5927 5930 5928 5928 5926 5925 5922 5920 5919 5919 5917 5916 5916 5915 5915 5915 5916 5915 5917 5917 5918 5919 5919 5920 5922 5925 5928 5929 5932 5935 5937 5936 5938 5940 5941 5942 5942 5942 5944 5944 5942 5942 5943
5945 5943 5942 5939 5933 5931 5929 5932 5931 5932 5932 5928 5928 5926 5924 5922 5921 5920 5918 5917 5916 5915 5915 5916 5916 5918 5920 5921 5921 5922 5922 5924 5928 5928 5932 5934 5936 5936 5938 5939 5940 5941 5942 5942 5942 5942 5942 5941 5942
5943 5945 5942 5939 5935 5932 5932 5931 5930 5930 5934 5932 5930 5929 5927 5926 5923 5923 5922 5920 5918 5917 5917 5918 5919 5919 5921 5923 5924 5924 5925 5925 5927 5931 5933 5934 5935 5936 5935 5937 5939 5940 5941 5940 5940 5940 5939 5940 5938
5943 5945 5943 5942 5938 5935 5937 5934 5935 5933 5932 5935 5932 5929 5929 5928 5927 5926 5925 5924 5922 5921 5920 5920 5922 5921 5921 5922 5924 5925 5926 5927 5929 5931 5932 5932 5932 5932 5932 5932 5934 5937 5937 5938 5938 5937 5937 5937 5936
5942 5945 5944 5945 5940 5938 5941 5941 5940 5938 5934 5933 5936 5934 5932 5930 5930 5929 5927 5926 5925 5925 5924 5923 5924 5923 5924 5923 5924 5926 5928 5928 5929 5930 5930 5930 5930 5929 5930 5930 5931 5934 5934 5934 5934 5933 5934 5933 5933
5944 5945 5945 5947 5943 5943 5942 5945 5941 5939 5938 5935 5934 5935 5935 5934 5933 5931 5931 5931 5927 5928 5927 5925 5925 5925 5925 5926 5926 5927 5929 5929 5929 5929 5927 5928 5928 5928 5928 5930 5931 5931 5931 5932 5930 5928 5927 5926 5927
5944 5945 5948 5947 5947 5945 5945 5946 5943 5942 5940 5939 5937 5937 5936 5937 5936 5934 5932 5929 5929 5930 5931 5930 5928 5929 5929 5928 5929 5930 5930 5930 5929 5930 5930 5928 5928 5927 5929 5929 5930 5930 5930 5930 5930 5927 5926 5923 5923
5944 5948 5950 5950 5949 5945 5944 5946 5947 5944 5943 5942 5941 5938 5936 5935 5936 5936 5935 5934 5933 5932 5931 5930 5930 5931 5930 5930 5930 5932 5932 5931 5931 5932 5931 5930 5927 5926 5927 5928 5931 5931 5931 5929 5927 5923 5920 5918 5919
5944 5950 5952 5953 5951 5949 5942 5944 5947 5949 5947 5946 5945 5943 5941 5939 5938 5935 5935 5936 5937 5935 5935 5935 5934 5934 5933 5933 5933 5932 5932 5932 5932 5932 5932 5930 5929 5931 5928 5928 5927 5928 5927 5927 5922 5901 5916 5913 5915
5947 5953 5955 5955 5955 5950 5945 5945 5946 5948 5951 5950 5949 5947 5946 5943 5942 5940 5939 5937 5936 5937 5935 5933 5933 5932 5931 5931 5932 5933 5934 5930 5932 5932 5928 5929 5926 5934 5931 5925 5925 5928 5926 5917 5921 5915 5915 5907 5911
5950 5952 5955 5956 5957 5952 5949 5948 5945 5945 5947 5951 5950 5947 5948 5947 5946 5943 5941 5940 5939 5938 5937 5936 5936 5935 5934 5933 5934 5935 5935 5931 5930 5928 5926 5927 5925 5931 5925 5924 5922 5926 5926 5923 5918 5917 5915 5911 5911
5950 5953 5955 5956 5957 5954 5950 5948 5945 5946 5946 5948 5950 5948 5947 5947 5946 5945 5943 5942 5941 5940 5939 5938 5938 5937 5935 5935 5935 5936 5936 5933 5930 5927 5924 5928 5928 5930 5925 5926 5922 5923 5923 5921 5913 5913 5915 5913 5908
5949 5953 5955 5953 5953 5955 5954 5950 5949 5948 5945 5946 5947 5950 5949 5947 5946 5945 5944 5943 5942 5941 5940 5939 5937 5935 5934 5933 5934 5935 5935 5934 5930 5927 5921 5925 5926 5925 5924 5922 5920 5919 5917 5916 5912 5910 5910 5910 5908
5947 5947 5951 5953 5952 5953 5952 5953 5950 5948 5947 5946 5945 5947 5947 5948 5949 5945 5944 5943 5943 5942 5941 5939 5936 5935 5933 5932 5931 5932 5932 5932 5930 5926 5925 5920 5914 5913 5913 5913 5915 5916 5914 5910 5907 5905 5904 5903 5901
5943 5945 5947 5947 5950 5948 5949 5950 5949 5948 5948 5945 5941 5940 5940 5944 5945 5946 5944 5943 5942 5942 5940 5938 5936 5934 5932 5931 5929 5929 5927 5925 5925 5926 5923 5921 5917 5913 5912 5913 5913 5911 5907 5903 5901 5899 5896 5892 5890
5938 5940 5944 5947 5947 5948 5949 5948 5946 5947 5947 5945 5942 5940 5935 5934 5938 5944 5944 5942 5940 5939 5937 5935 5934 5933 5932 5928 5925 5924 5923 5921 5919 5917 5916 5912 5915 5913 5908 5905 5902 5900 5898 5896 5893 5892 5889 5885 5882
5935 5937 5942 5942 5944 5946 5944 5946 5945 5945 5945 5943 5941 5938 5936 5933 5932 5933 5941 5942 5940 5937 5934 5934 5932 5929 5930 5927 5926 5920 5918 5918 5915 5911 5909 5909 5908 5909 5905 5902 5899 5894 5891 5890 5888 5885 5881 5877 5873
5932 5934 5939 5938 5943 5945 5944 5945 5943 5943 5943 5943 5941 5941 5936 5931 5930 5930 5930 5938 5939 5935 5932 5928 5930 5925 5926 5925 5922 5917 5917 5916 5910 5907 5905 5904 5901 5901 5900 5896 5893 5889 5884 5881 5879 5876 5871 5867 5863
5926 5934 5935 5935 5940 5942 5943 5941 5941 5941 5941 5941 5943 5942 5940 5932 5926 5927 5927 5929 5929 5929 5925 5923 5926 5924 5918 5918 5911 5910 5911 5910 5902 5905 5896 5893 5897 5897 5892 5889 5883 5879 5876 5870 5867 5862 5858 5853 5850
5923 5925 5929 5934 5938 5939 5939 5937 5937 5937 5936 5938 5939 5940 5937 5933 5928 5923 5925 5919 5912 5918 5919 5919 5919 5914 5905 5901 5892 5900 5900 5897 5885 5892 5890 5885 5888 5890 5885 5879 5875 5870 5868 5859 5856 5850 5845 5840 5836
5919 5922 5924 5926 5932 5934 5935 5934 5934 5934 5934 5933 5935 5935 5933 5930 5928 5926 5919 5915 5919 5917 5914 5913 5911 5905 5876 5863 5886 5892 5892 5895 5883 5889 5888 5878 5876 5876 5873 5869 5864 5858 5854 5845 5841 5834 5829 5824 5819